| time (UTC) | temp F | wind direction | speed MPH | gust MPH | rain 1hr in | rain 24hr in | rain mn in | humidity % | barometer mb |
| 20260831222527 | 84 | 341 | 2.0 | 6.0 | 0.00 | 0.00 | 0.00 | 48 | 1016.5 |
| 20260831222021 | 84 | 305 | 2.0 | 6.0 | 0.00 | 0.00 | 0.00 | 48 | 1016.5 |
| 20260831221522 | 83 | 145 | 1.0 | 5.0 | 0.00 | 0.00 | 0.00 | 50 | 1016.4 |
| 20260831221017 | 83 | 165 | 2.0 | 5.0 | 0.00 | 0.00 | 0.00 | 52 | 1016.5 |
| 20260831220517 | 82 | 211 | 2.0 | 6.0 | 0.00 | 0.00 | 0.00 | 49 | 1016.7 |
| 20260831220014 | 82 | 267 | 2.0 | 6.0 | 0.00 | 0.00 | 0.00 | 50 | 1016.6 |
| 20260831215515 | 82 | 229 | 2.0 | 6.0 | 0.00 | 0.00 | 0.00 | 50 | 1016.8 |
| 20260831215015 | 82 | 226 | 1.0 | 4.0 | 0.00 | 0.00 | 0.00 | 50 | 1016.7 |
| 20260831214515 | 82 | 113 | 1.0 | 4.0 | 0.00 | 0.00 | 0.00 | 50 | 1016.8 |
| 20260831214010 | 81 | 313 | 1.0 | 3.0 | 0.00 | 0.00 | 0.00 | 52 | 1017.0 |
| 20260831213511 | 81 | 315 | 1.0 | 3.0 | 0.00 | 0.00 | 0.00 | 51 | 1017.0 |
| 20260831213011 | 81 | 319 | 1.0 | 4.0 | 0.00 | 0.00 | 0.00 | 52 | 1017.2 |
| 20260831212511 | 80 | 323 | 1.0 | 4.0 | 0.00 | 0.00 | 0.00 | 53 | 1017.3 |
| 20260831212009 | 80 | 200 | 1.0 | 4.0 | 0.00 | 0.00 | 0.00 | 53 | 1017.3 |
| 20260831211508 | 80 | 319 | 1.0 | 5.0 | 0.00 | 0.00 | 0.00 | 52 | 1017.2 |
| 20260831211004 | 80 | 290 | 1.0 | 5.0 | 0.00 | 0.00 | 0.00 | 53 | 1017.2 |
| 20260831210503 | 80 | 298 | 1.0 | 4.0 | 0.00 | 0.00 | 0.00 | 56 | 1017.4 |
| 20260831210003 | 79 | 299 | 1.0 | 4.0 | 0.00 | 0.00 | 0.00 | 55 | 1017.4 |
| 20260831205504 | 79 | 0 | 1.0 | 5.0 | 0.00 | 0.00 | 0.00 | 55 | 1017.4 |
| 20260831205002 | 78 | 70 | 1.0 | 5.0 | 0.00 | 0.00 | 0.00 | 56 | 1017.4 |
| 20260831204503 | 78 | 61 | 1.0 | 3.0 | 0.00 | 0.00 | 0.00 | 58 | 1017.5 |
| 20260831204004 | 77 | 63 | 1.0 | 4.0 | 0.00 | 0.00 | 0.00 | 59 | 1017.5 |
| 20260831203459 | 77 | 28 | 2.0 | 6.0 | 0.00 | 0.00 | 0.00 | 57 | 1017.6 |
| 20260831202958 | 76 | 329 | 2.0 | 6.0 | 0.00 | 0.00 | 0.00 | 58 | 1017.7 |
| 20260831202458 | 76 | 311 | 1.0 | 3.0 | 0.00 | 0.00 | 0.00 | 58 | 1017.7 |
| 20260831201959 | 76 | 311 | 2.0 | 4.0 | 0.00 | 0.00 | 0.00 | 58 | 1017.8 |
| 20260831201459 | 76 | 343 | 1.0 | 4.0 | 0.00 | 0.00 | 0.00 | 59 | 1017.9 |
| 20260831200959 | 76 | 195 | 1.0 | 3.0 | 0.00 | 0.00 | 0.00 | 60 | 1017.8 |
| 20260831200455 | 75 | 196 | 2.0 | 6.0 | 0.00 | 0.00 | 0.00 | 61 | 1017.8 |
| 20260831195956 | 75 | 274 | 2.0 | 6.0 | 0.00 | 0.00 | 0.00 | 60 | 1017.9 |
| 20260831195455 | 75 | 12 | 2.0 | 6.0 | 0.00 | 0.00 | 0.00 | 60 | 1017.9 |
| 20260831194955 | 75 | 302 | 2.0 | 3.0 | 0.00 | 0.00 | 0.00 | 60 | 1018.0 |
| 20260831194454 | 75 | 317 | 2.0 | 4.0 | 0.00 | 0.00 | 0.00 | 61 | 1018.2 |
| 20260831193956 | 75 | 280 | 2.0 | 4.0 | 0.00 | 0.00 | 0.00 | 60 | 1018.3 |
| 20260831193451 | 75 | 277 | 2.0 | 4.0 | 0.00 | 0.00 | 0.00 | 61 | 1018.3 |
| 20260831192950 | 74 | 76 | 1.0 | 4.0 | 0.00 | 0.00 | 0.00 | 63 | 1018.3 |
| 20260831192452 | 74 | 71 | 1.0 | 4.0 | 0.00 | 0.00 | 0.00 | 64 | 1018.3 |
| 20260831191950 | 73 | 44 | 1.0 | 4.0 | 0.00 | 0.00 | 0.00 | 63 | 1018.5 |
| 20260831191452 | 73 | 135 | 1.0 | 5.0 | 0.00 | 0.00 | 0.00 | 64 | 1018.7 |
| 20260831190952 | 72 | 130 | 2.0 | 5.0 | 0.00 | 0.00 | 0.00 | 66 | 1018.7 |
| 20260831190446 | 72 | 132 | 2.0 | 4.0 | 0.00 | 0.00 | 0.00 | 66 | 1018.7 |
| 20260831185947 | 71 | 152 | 2.0 | 4.0 | 0.00 | 0.00 | 0.00 | 65 | 1018.9 |
| 20260831185447 | 71 | 202 | 2.0 | 5.0 | 0.00 | 0.00 | 0.00 | 66 | 1018.9 |
| 20260831184946 | 71 | 329 | 2.0 | 6.0 | 0.00 | 0.00 | 0.00 | 66 | 1019.0 |
| 20260831184446 | 71 | 324 | 2.0 | 6.0 | 0.00 | 0.00 | 0.00 | 66 | 1019.0 |
| 20260831183947 | 71 | 322 | 1.0 | 5.0 | 0.00 | 0.00 | 0.00 | 67 | 1019.1 |
| 20260831183446 | 71 | 15 | 1.0 | 4.0 | 0.00 | 0.00 | 0.00 | 67 | 1019.1 |
| 20260831182946 | 70 | 0 | 1.0 | 4.0 | 0.00 | 0.00 | 0.00 | 68 | 1019.2 |
| 20260831182447 | 70 | 275 | 2.0 | 4.0 | 0.00 | 0.00 | 0.00 | 68 | 1019.2 |
| 20260831181947 | 70 | 276 | 2.0 | 7.0 | 0.00 | 0.00 | 0.00 | 67 | 1019.1 |
| 20260831181446 | 70 | 275 | 1.0 | 7.0 | 0.00 | 0.00 | 0.00 | 68 | 1019.1 |
| 20260831180946 | 69 | 103 | 2.0 | 8.0 | 0.00 | 0.00 | 0.00 | 70 | 1019.2 |
| 20260831180441 | 69 | 109 | 3.0 | 8.0 | 0.00 | 0.00 | 0.00 | 69 | 1019.2 |
| 20260831175940 | 69 | 61 | 2.0 | 6.0 | 0.00 | 0.00 | 0.00 | 70 | 1019.2 |
| 20260831175441 | 68 | 42 | 1.0 | 4.0 | 0.00 | 0.00 | 0.00 | 71 | 1019.3 |
| 20260831174941 | 68 | 329 | 2.0 | 5.0 | 0.00 | 0.00 | 0.00 | 71 | 1019.5 |
| 20260831174440 | 68 | 305 | 2.0 | 6.0 | 0.00 | 0.00 | 0.00 | 71 | 1019.6 |
| 20260831173941 | 67 | 96 | 1.0 | 6.0 | 0.00 | 0.00 | 0.00 | 72 | 1019.6 |
| 20260831173438 | 67 | 67 | 1.0 | 5.0 | 0.00 | 0.00 | 0.00 | 72 | 1019.7 |
| 20260831172937 | 67 | 87 | 1.0 | 4.0 | 0.00 | 0.00 | 0.00 | 73 | 1019.8 |
| 20260831172437 | 66 | 76 | 1.0 | 4.0 | 0.00 | 0.00 | 0.00 | 75 | 1019.8 |
| 20260831171938 | 66 | 313 | 1.0 | 4.0 | 0.00 | 0.00 | 0.00 | 75 | 1019.8 |
| 20260831171434 | 66 | 109 | 2.0 | 4.0 | 0.00 | 0.00 | 0.00 | 75 | 1019.8 |
| 20260831170935 | 65 | 89 | 2.0 | 4.0 | 0.00 | 0.00 | 0.00 | 76 | 1019.8 |
| 20260831170432 | 65 | 49 | 1.0 | 4.0 | 0.00 | 0.00 | 0.00 | 76 | 1019.8 |
| 20260831165930 | 65 | 72 | 1.0 | 5.0 | 0.00 | 0.00 | 0.00 | 77 | 1019.9 |
| 20260831165429 | 64 | 72 | 1.0 | 5.0 | 0.00 | 0.00 | 0.00 | 77 | 1020.0 |
| 20260831164928 | 64 | 78 | 1.0 | 4.0 | 0.00 | 0.00 | 0.00 | 78 | 1020.0 |
| 20260831164428 | 63 | 76 | 2.0 | 4.0 | 0.00 | 0.00 | 0.00 | 80 | 1020.1 |
| 20260831163928 | 63 | 94 | 1.0 | 4.0 | 0.00 | 0.00 | 0.00 | 81 | 1020.2 |
| 20260831163422 | 62 | 98 | 1.0 | 4.0 | 0.00 | 0.00 | 0.00 | 82 | 1020.2 |
| 20260831162922 | 62 | 83 | 1.0 | 3.0 | 0.00 | 0.00 | 0.00 | 82 | 1020.2 |
| 20260831162422 | 61 | 84 | 1.0 | 3.0 | 0.00 | 0.00 | 0.00 | 83 | 1020.2 |
| 20260831161922 | 61 | 71 | 1.0 | 6.0 | 0.00 | 0.00 | 0.00 | 84 | 1020.3 |
| 20260831161422 | 60 | 70 | 1.0 | 6.0 | 0.00 | 0.00 | 0.00 | 84 | 1020.3 |
| 20260831160923 | 60 | 53 | 1.0 | 3.0 | 0.00 | 0.00 | 0.00 | 85 | 1020.4 |
| 20260831160417 | 59 | 79 | 1.0 | 3.0 | 0.00 | 0.00 | 0.00 | 86 | 1020.3 |
| 20260831155916 | 58 | 67 | 0.0 | 3.0 | 0.00 | 0.00 | 0.00 | 86 | 1020.3 |
| 20260831155416 | 58 | 71 | 0.0 | 3.0 | 0.00 | 0.00 | 0.00 | 87 | 1020.4 |
| 20260831154916 | 58 | 71 | 1.0 | 3.0 | 0.00 | 0.00 | 0.00 | 87 | 1020.3 |
| 20260831154416 | 57 | 71 | 2.0 | 4.0 | 0.00 | 0.00 | 0.00 | 87 | 1020.3 |
| 20260831153917 | 57 | 65 | 1.0 | 4.0 | 0.00 | 0.00 | 0.00 | 87 | 1020.4 |
| 20260831153413 | 57 | 26 | 1.0 | 3.0 | 0.00 | 0.00 | 0.00 | 88 | 1020.4 |
| 20260831152912 | 56 | 29 | 1.0 | 4.0 | 0.00 | 0.00 | 0.00 | 89 | 1020.3 |
| 20260831152414 | 56 | 350 | 0.0 | 4.0 | 0.00 | 0.00 | 0.00 | 89 | 1020.4 |
| 20260831151912 | 55 | 9 | 0.0 | 3.0 | 0.00 | 0.00 | 0.00 | 90 | 1020.3 |
| 20260831151409 | 55 | 5 | 0.0 | 0.0 | 0.00 | 0.00 | 0.00 | 90 | 1020.3 |
| 20260831150909 | 54 | 5 | 0.0 | 0.0 | 0.00 | 0.00 | 0.00 | 91 | 1020.3 |
| 20260831150409 | 54 | 9 | 0.0 | 0.0 | 0.00 | 0.00 | 0.00 | 91 | 1020.4 |
| 20260831145906 | 54 | 9 | 0.0 | 0.0 | 0.00 | 0.00 | 0.00 | 91 | 1020.5 |
| 20260831145407 | 53 | 5 | 0.0 | 0.0 | 0.00 | 0.00 | 0.00 | 92 | 1020.5 |
| 20260831144906 | 53 | 9 | 0.0 | 0.0 | 0.00 | 0.00 | 0.00 | 92 | 1020.5 |
| 20260831144403 | 52 | 9 | 0.0 | 0.0 | 0.00 | 0.00 | 0.00 | 92 | 1020.5 |
| 20260831143905 | 52 | 5 | 0.0 | 0.0 | 0.00 | 0.00 | 0.00 | 92 | 1020.5 |
| 20260831143359 | 51 | 10 | 0.0 | 0.0 | 0.00 | 0.00 | 0.00 | 92 | 1020.4 |
| 20260831142858 | 51 | 10 | 0.0 | 0.0 | 0.00 | 0.00 | 0.00 | 91 | 1020.4 |
| 20260831142358 | 51 | 9 | 0.0 | 0.0 | 0.00 | 0.00 | 0.00 | 91 | 1020.4 |
| 20260831141858 | 51 | 5 | 0.0 | 0.0 | 0.00 | 0.00 | 0.00 | 90 | 1020.3 |
| 20260831141358 | 51 | 5 | 0.0 | 0.0 | 0.00 | 0.00 | 0.00 | 90 | 1020.2 |
| 20260831140859 | 50 | 5 | 0.0 | 0.0 | 0.00 | 0.00 | 0.00 | 90 | 1020.3 |
| 20260831140352 | 50 | 5 | 0.0 | 0.0 | 0.00 | 0.00 | 0.00 | 90 | 1020.4 |
| 20260831135851 | 50 | 9 | 0.0 | 0.0 | 0.00 | 0.00 | 0.00 | 90 | 1020.3 |
| 20260831135352 | 50 | 9 | 0.0 | 0.0 | 0.00 | 0.00 | 0.00 | 90 | 1020.3 |
| 20260831134851 | 50 | 5 | 0.0 | 0.0 | 0.00 | 0.00 | 0.00 | 89 | 1020.4 |
| 20260831134352 | 50 | 11 | 0.0 | 0.0 | 0.00 | 0.00 | 0.00 | 89 | 1020.4 |
| 20260831133851 | 50 | 5 | 0.0 | 0.0 | 0.00 | 0.00 | 0.00 | 89 | 1020.4 |
| 20260831133349 | 51 | 5 | 0.0 | 0.0 | 0.00 | 0.00 | 0.00 | 89 | 1020.5 |
| 20260831132848 | 51 | 5 | 0.0 | 0.0 | 0.00 | 0.00 | 0.00 | 89 | 1020.5 |
| 20260831132345 | 51 | 9 | 0.0 | 0.0 | 0.00 | 0.00 | 0.00 | 89 | 1020.5 |
| 20260831131846 | 51 | 9 | 0.0 | 0.0 | 0.00 | 0.00 | 0.00 | 89 | 1020.5 |
| 20260831131346 | 51 | 5 | 0.0 | 0.0 | 0.00 | 0.00 | 0.00 | 89 | 1020.5 |
| 20260831130847 | 51 | 9 | 0.0 | 0.0 | 0.00 | 0.00 | 0.00 | 89 | 1020.5 |
| 20260831130339 | 52 | 5 | 0.0 | 0.0 | 0.00 | 0.00 | 0.00 | 88 | 1020.5 |
| 20260831125840 | 52 | 9 | 0.0 | 0.0 | 0.00 | 0.00 | 0.00 | 89 | 1020.5 |
| 20260831125346 | 52 | 9 | 0.0 | 0.0 | 0.00 | 0.00 | 0.00 | 89 | 1020.5 |
| 20260831124840 | 52 | 11 | 0.0 | 0.0 | 0.00 | 0.00 | 0.00 | 88 | 1020.6 |
| 20260831124338 | 53 | 9 | 0.0 | 0.0 | 0.00 | 0.00 | 0.00 | 88 | 1020.5 |
| 20260831123839 | 53 | 5 | 0.0 | 0.0 | 0.00 | 0.00 | 0.00 | 88 | 1020.6 |
| 20260831123333 | 53 | 5 | 0.0 | 0.0 | 0.00 | 0.00 | 0.00 | 88 | 1020.6 |
| 20260831122831 | 53 | 10 | 0.0 | 0.0 | 0.00 | 0.00 | 0.00 | 88 | 1020.6 |
| 20260831122328 | 54 | 5 | 0.0 | 0.0 | 0.00 | 0.00 | 0.00 | 87 | 1020.7 |
| 20260831121826 | 54 | 5 | 0.0 | 0.0 | 0.00 | 0.00 | 0.00 | 87 | 1020.7 |
| 20260831121331 | 54 | 5 | 0.0 | 0.0 | 0.00 | 0.00 | 0.00 | 87 | 1020.7 |
| 20260831120821 | 54 | 11 | 0.0 | 0.0 | 0.00 | 0.00 | 0.00 | 87 | 1020.7 |
| 20260831120319 | 55 | 10 | 0.0 | 0.0 | 0.00 | 0.00 | 0.00 | 87 | 1020.6 |
| 20260831115820 | 55 | 10 | 0.0 | 0.0 | 0.00 | 0.00 | 0.00 | 87 | 1020.7 |
| 20260831115320 | 55 | 9 | 0.0 | 0.0 | 0.00 | 0.00 | 0.00 | 87 | 1020.6 |
| 20260831114820 | 55 | 5 | 0.0 | 0.0 | 0.00 | 0.00 | 0.00 | 87 | 1020.7 |
| 20260831114321 | 56 | 5 | 0.0 | 0.0 | 0.00 | 0.00 | 0.00 | 87 | 1020.8 |
| 20260831113817 | 56 | 10 | 0.0 | 0.0 | 0.00 | 0.00 | 0.00 | 87 | 1020.7 |
| 20260831113315 | 56 | 5 | 0.0 | 1.0 | 0.00 | 0.00 | 0.00 | 87 | 1020.9 |
| 20260831112813 | 56 | 10 | 0.0 | 1.0 | 0.00 | 0.00 | 0.00 | 87 | 1020.8 |
| 20260831112312 | 56 | 5 | 0.0 | 0.0 | 0.00 | 0.00 | 0.00 | 87 | 1020.8 |
| 20260831111810 | 56 | 9 | 0.0 | 1.0 | 0.00 | 0.00 | 0.00 | 87 | 1021.0 |
| 20260831111309 | 56 | 5 | 0.0 | 2.0 | 0.00 | 0.00 | 0.00 | 87 | 1021.0 |
| 20260831110808 | 56 | 5 | 0.0 | 2.0 | 0.00 | 0.00 | 0.00 | 87 | 1020.9 |
| 20260831110309 | 56 | 5 | 0.0 | 2.0 | 0.00 | 0.00 | 0.00 | 87 | 1020.9 |
| 20260831105807 | 56 | 5 | 0.0 | 1.0 | 0.00 | 0.00 | 0.00 | 87 | 1020.9 |
| 20260831105306 | 56 | 9 | 0.0 | 1.0 | 0.00 | 0.00 | 0.00 | 87 | 1021.1 |
| 20260831104806 | 56 | 9 | 0.0 | 1.0 | 0.00 | 0.00 | 0.00 | 87 | 1020.9 |
| 20260831104305 | 56 | 10 | 0.0 | 2.0 | 0.00 | 0.00 | 0.00 | 87 | 1021.0 |
| 20260831103806 | 56 | 10 | 0.0 | 2.0 | 0.00 | 0.00 | 0.00 | 87 | 1021.0 |
| 20260831103301 | 55 | 5 | 0.0 | 1.0 | 0.00 | 0.00 | 0.00 | 87 | 1021.1 |
| 20260831102802 | 55 | 5 | 0.0 | 1.0 | 0.00 | 0.00 | 0.00 | 87 | 1021.0 |
| 20260831102305 | 55 | 5 | 0.0 | 1.0 | 0.00 | 0.00 | 0.00 | 88 | 1021.1 |
| 20260831101802 | 55 | 9 | 0.0 | 1.0 | 0.00 | 0.00 | 0.00 | 88 | 1021.1 |
| 20260831101302 | 55 | 5 | 0.0 | 1.0 | 0.00 | 0.00 | 0.00 | 88 | 1021.2 |
| 20260831100802 | 55 | 5 | 0.0 | 1.0 | 0.00 | 0.00 | 0.00 | 88 | 1021.2 |
| 20260831100257 | 55 | 5 | 0.0 | 0.0 | 0.00 | 0.00 | 0.00 | 87 | 1021.2 |
| 20260831095759 | 55 | 5 | 0.0 | 0.0 | 0.00 | 0.00 | 0.00 | 86 | 1021.3 |
| 20260831095259 | 55 | 11 | 0.0 | 0.0 | 0.00 | 0.00 | 0.00 | 86 | 1021.5 |
| 20260831094758 | 55 | 5 | 0.0 | 0.0 | 0.00 | 0.00 | 0.00 | 85 | 1021.4 |
| 20260831094257 | 55 | 5 | 0.0 | 0.0 | 0.00 | 0.00 | 0.00 | 85 | 1021.6 |
| 20260831093759 | 56 | 5 | 0.0 | 0.0 | 0.00 | 0.00 | 0.00 | 85 | 1021.5 |
| 20260831093255 | 56 | 9 | 0.0 | 0.0 | 0.00 | 0.00 | 0.00 | 85 | 1021.6 |
| 20260831092754 | 56 | 5 | 0.0 | 0.0 | 0.00 | 0.00 | 0.00 | 84 | 1021.7 |
| 20260831092254 | 56 | 5 | 0.0 | 0.0 | 0.00 | 0.00 | 0.00 | 84 | 1021.6 |
| 20260831091753 | 57 | 5 | 0.0 | 0.0 | 0.00 | 0.00 | 0.00 | 84 | 1021.8 |
| 20260831091253 | 57 | 5 | 0.0 | 0.0 | 0.00 | 0.00 | 0.00 | 84 | 1021.9 |
| 20260831090754 | 57 | 11 | 0.0 | 0.0 | 0.00 | 0.00 | 0.00 | 84 | 1021.9 |
| 20260831090251 | 58 | 9 | 0.0 | 0.0 | 0.00 | 0.00 | 0.00 | 83 | 1022.0 |
| 20260831085749 | 58 | 9 | 0.0 | 0.0 | 0.00 | 0.00 | 0.00 | 82 | 1022.0 |
| 20260831085247 | 58 | 9 | 0.0 | 0.0 | 0.00 | 0.00 | 0.00 | 82 | 1022.1 |
| 20260831084747 | 59 | 5 | 0.0 | 1.0 | 0.00 | 0.00 | 0.00 | 82 | 1022.0 |
| 20260831084246 | 59 | 5 | 0.0 | 1.0 | 0.00 | 0.00 | 0.00 | 82 | 1022.1 |
| 20260831083743 | 59 | 5 | 0.0 | 1.0 | 0.00 | 0.00 | 0.00 | 82 | 1022.1 |
| 20260831083241 | 59 | 9 | 0.0 | 1.0 | 0.00 | 0.00 | 0.00 | 82 | 1022.2 |
| 20260831082741 | 59 | 5 | 0.0 | 3.0 | 0.00 | 0.00 | 0.00 | 82 | 1022.1 |
| 20260831082241 | 59 | 5 | 0.0 | 3.0 | 0.00 | 0.00 | 0.00 | 82 | 1022.1 |
| 20260831081739 | 60 | 9 | 0.0 | 3.0 | 0.00 | 0.00 | 0.00 | 81 | 1022.2 |
| 20260831081240 | 60 | 9 | 1.0 | 3.0 | 0.00 | 0.00 | 0.00 | 81 | 1022.1 |
| 20260831080733 | 60 | 5 | 1.0 | 3.0 | 0.00 | 0.00 | 0.00 | 81 | 1022.2 |
| 20260831080233 | 60 | 11 | 1.0 | 3.0 | 0.00 | 0.00 | 0.00 | 81 | 1022.4 |
| 20260831075734 | 60 | 9 | 0.0 | 2.0 | 0.00 | 0.00 | 0.00 | 80 | 1022.4 |
| 20260831075234 | 60 | 9 | 0.0 | 3.0 | 0.00 | 0.00 | 0.00 | 80 | 1022.5 |
| 20260831074733 | 60 | 10 | 0.0 | 3.0 | 0.00 | 0.00 | 0.00 | 80 | 1022.4 |
| 20260831074234 | 60 | 5 | 0.0 | 3.0 | 0.00 | 0.00 | 0.00 | 80 | 1022.5 |
| 20260831073728 | 60 | 16 | 1.0 | 3.0 | 0.00 | 0.00 | 0.00 | 80 | 1022.4 |
| 20260831073227 | 61 | 16 | 1.0 | 3.0 | 0.00 | 0.00 | 0.00 | 80 | 1022.6 |
| 20260831072724 | 61 | 22 | 1.0 | 2.0 | 0.00 | 0.00 | 0.00 | 79 | 1022.7 |
| 20260831072221 | 61 | 22 | 1.0 | 2.0 | 0.00 | 0.00 | 0.00 | 79 | 1022.7 |
| 20260831071722 | 61 | 22 | 0.0 | 2.0 | 0.00 | 0.00 | 0.00 | 79 | 1022.7 |
| 20260831071217 | 61 | 22 | 0.0 | 2.0 | 0.00 | 0.00 | 0.00 | 78 | 1022.8 |
| 20260831070717 | 61 | 24 | 0.0 | 2.0 | 0.00 | 0.00 | 0.00 | 78 | 1022.9 |
| 20260831070219 | 62 | 24 | 0.0 | 2.0 | 0.00 | 0.00 | 0.00 | 78 | 1022.9 |
| 20260831065715 | 62 | 24 | 1.0 | 3.0 | 0.00 | 0.00 | 0.00 | 77 | 1022.9 |
| 20260831065216 | 62 | 25 | 1.0 | 3.0 | 0.00 | 0.00 | 0.00 | 77 | 1023.0 |
| 20260831064716 | 62 | 23 | 1.0 | 3.0 | 0.00 | 0.00 | 0.00 | 77 | 1023.1 |
| 20260831064213 | 62 | 26 | 0.0 | 3.0 | 0.00 | 0.00 | 0.00 | 76 | 1023.0 |
| 20260831063712 | 63 | 25 | 0.0 | 2.0 | 0.00 | 0.00 | 0.00 | 76 | 1023.1 |
| 20260831063211 | 63 | 27 | 0.0 | 2.0 | 0.00 | 0.00 | 0.00 | 75 | 1023.1 |
| 20260831062711 | 63 | 23 | 1.0 | 2.0 | 0.00 | 0.00 | 0.00 | 75 | 1023.2 |
| 20260831062212 | 63 | 23 | 1.0 | 3.0 | 0.00 | 0.00 | 0.00 | 74 | 1023.3 |
| 20260831061712 | 63 | 23 | 1.0 | 5.0 | 0.00 | 0.00 | 0.00 | 74 | 1023.3 |
| 20260831061208 | 63 | 19 | 2.0 | 5.0 | 0.00 | 0.00 | 0.00 | 74 | 1023.3 |
| 20260831060708 | 64 | 22 | 2.0 | 5.0 | 0.00 | 0.00 | 0.00 | 74 | 1023.4 |
| 20260831060207 | 64 | 11 | 1.0 | 4.0 | 0.00 | 0.00 | 0.00 | 73 | 1023.4 |
| 20260831055707 | 64 | 24 | 1.0 | 4.0 | 0.00 | 0.00 | 0.00 | 72 | 1023.5 |
| 20260831055205 | 64 | 20 | 1.0 | 4.0 | 0.00 | 0.00 | 0.00 | 72 | 1023.5 |
| 20260831054706 | 64 | 24 | 1.0 | 4.0 | 0.00 | 0.00 | 0.00 | 71 | 1023.4 |
| 20260831054205 | 64 | 13 | 1.0 | 3.0 | 0.00 | 0.00 | 0.00 | 71 | 1023.5 |
| 20260831053705 | 65 | 26 | 1.0 | 3.0 | 0.00 | 0.00 | 0.00 | 70 | 1023.5 |
| 20260831053204 | 65 | 28 | 1.0 | 7.0 | 0.00 | 0.00 | 0.00 | 70 | 1023.6 |
| 20260831052703 | 65 | 20 | 2.0 | 7.0 | 0.00 | 0.00 | 0.00 | 69 | 1023.7 |
| 20260831052205 | 65 | 25 | 1.0 | 5.0 | 0.00 | 0.00 | 0.00 | 69 | 1023.7 |
| 20260831051702 | 65 | 43 | 1.0 | 5.0 | 0.00 | 0.00 | 0.00 | 69 | 1023.7 |
| 20260831051200 | 66 | 17 | 2.0 | 5.0 | 0.00 | 0.00 | 0.00 | 68 | 1023.8 |
| 20260831050700 | 66 | 12 | 2.0 | 5.0 | 0.00 | 0.00 | 0.00 | 68 | 1023.7 |
| 20260831050153 | 66 | 32 | 2.0 | 5.0 | 0.00 | 0.00 | 0.00 | 68 | 1023.7 |
| 20260831045653 | 66 | 13 | 2.0 | 6.0 | 0.00 | 0.00 | 0.00 | 67 | 1023.8 |
| 20260831045153 | 67 | 44 | 3.0 | 9.0 | 0.00 | 0.00 | 0.00 | 67 | 1023.8 |
| 20260831044653 | 67 | 15 | 3.0 | 9.0 | 0.00 | 0.00 | 0.00 | 66 | 1023.8 |
| 20260831044153 | 67 | 13 | 3.0 | 7.0 | 0.00 | 0.00 | 0.00 | 66 | 1023.9 |
| 20260831043653 | 67 | 341 | 3.0 | 6.0 | 0.00 | 0.00 | 0.00 | 66 | 1023.8 |
| 20260831043147 | 67 | 24 | 3.0 | 6.0 | 0.00 | 0.00 | 0.00 | 65 | 1024.0 |
| 20260831042647 | 67 | 306 | 2.0 | 6.0 | 0.00 | 0.00 | 0.00 | 65 | 1023.9 |
| 20260831042147 | 68 | 32 | 2.0 | 6.0 | 0.00 | 0.00 | 0.00 | 64 | 1023.9 |
| 20260831041647 | 68 | 40 | 2.0 | 6.0 | 0.00 | 0.00 | 0.00 | 64 | 1023.9 |
| 20260831041147 | 68 | 305 | 3.0 | 7.0 | 0.00 | 0.00 | 0.00 | 63 | 1023.9 |
| 20260831040648 | 68 | 355 | 4.0 | 7.0 | 0.00 | 0.00 | 0.00 | 63 | 1023.9 |
| 20260831040141 | 68 | 344 | 3.0 | 8.0 | 0.00 | 0.00 | 0.00 | 63 | 1023.9 |
| 20260831035641 | 68 | 21 | 2.0 | 8.0 | 0.00 | 0.00 | 0.00 | 63 | 1024.0 |
| 20260831035141 | 69 | 5 | 3.0 | 8.0 | 0.00 | 0.00 | 0.00 | 63 | 1023.8 |
| 20260831034641 | 69 | 24 | 2.0 | 8.0 | 0.00 | 0.00 | 0.00 | 62 | 1023.8 |
| 20260831034141 | 69 | 355 | 2.0 | 7.0 | 0.00 | 0.00 | 0.00 | 62 | 1023.8 |
| 20260831033642 | 69 | 320 | 2.0 | 7.0 | 0.00 | 0.00 | 0.00 | 61 | 1023.7 |
| 20260831033137 | 69 | 36 | 2.0 | 8.0 | 0.00 | 0.00 | 0.00 | 61 | 1023.7 |
| 20260831032637 | 70 | 24 | 3.0 | 8.0 | 0.00 | 0.00 | 0.00 | 61 | 1023.6 |
| 20260831032135 | 70 | 85 | 3.0 | 10.0 | 0.00 | 0.00 | 0.00 | 60 | 1023.6 |
| 20260831031635 | 70 | 46 | 3.0 | 10.0 | 0.00 | 0.00 | 0.00 | 60 | 1023.7 |
| 20260831031135 | 70 | 54 | 3.0 | 10.0 | 0.00 | 0.00 | 0.00 | 60 | 1023.7 |
| 20260831030636 | 71 | 97 | 4.0 | 11.0 | 0.00 | 0.00 | 0.00 | 60 | 1023.8 |
| 20260831030133 | 71 | 28 | 3.0 | 11.0 | 0.00 | 0.00 | 0.00 | 60 | 1023.8 |
| 20260831025633 | 71 | 114 | 3.0 | 8.0 | 0.00 | 0.00 | 0.00 | 60 | 1023.7 |
| 20260831025134 | 72 | 42 | 3.0 | 10.0 | 0.00 | 0.00 | 0.00 | 60 | 1023.7 |
| 20260831024631 | 72 | 26 | 3.0 | 10.0 | 0.00 | 0.00 | 0.00 | 59 | 1023.6 |
| 20260831024129 | 72 | 342 | 3.0 | 10.0 | 0.00 | 0.00 | 0.00 | 59 | 1023.8 |
| 20260831023630 | 73 | 26 | 3.0 | 10.0 | 0.00 | 0.00 | 0.00 | 59 | 1023.8 |
| 20260831023124 | 73 | 53 | 3.0 | 10.0 | 0.00 | 0.00 | 0.00 | 58 | 1023.8 |
| 20260831022623 | 73 | 37 | 3.0 | 9.0 | 0.00 | 0.00 | 0.00 | 57 | 1023.7 |
| 20260831022123 | 73 | 19 | 3.0 | 13.0 | 0.00 | 0.00 | 0.00 | 57 | 1023.8 |
| 20260831021623 | 74 | 355 | 3.0 | 13.0 | 0.00 | 0.00 | 0.00 | 57 | 1023.8 |
| 20260831021122 | 74 | 42 | 3.0 | 10.0 | 0.00 | 0.00 | 0.00 | 57 | 1023.8 |
| 20260831020624 | 74 | 33 | 3.0 | 9.0 | 0.00 | 0.00 | 0.00 | 57 | 1023.8 |
| 20260831020119 | 74 | 36 | 4.0 | 9.0 | 0.00 | 0.00 | 0.00 | 56 | 1023.9 |
| 20260831015619 | 74 | 76 | 4.0 | 11.0 | 0.00 | 0.00 | 0.00 | 56 | 1023.8 |
| 20260831015116 | 74 | 26 | 4.0 | 11.0 | 0.00 | 0.00 | 0.00 | 56 | 1023.9 |
| 20260831014617 | 74 | 348 | 3.0 | 10.0 | 0.00 | 0.00 | 0.00 | 56 | 1023.9 |
| 20260831014117 | 74 | 57 | 4.0 | 14.0 | 0.00 | 0.00 | 0.00 | 55 | 1024.0 |
| 20260831013617 | 75 | 77 | 3.0 | 14.0 | 0.00 | 0.00 | 0.00 | 55 | 1024.0 |
| 20260831013112 | 75 | 13 | 4.0 | 11.0 | 0.00 | 0.00 | 0.00 | 55 | 1024.1 |
| 20260831012611 | 75 | 26 | 4.0 | 11.0 | 0.00 | 0.00 | 0.00 | 54 | 1024.0 |
| 20260831012111 | 76 | 0 | 4.0 | 11.0 | 0.00 | 0.00 | 0.00 | 54 | 1024.1 |
| 20260831011611 | 76 | 10 | 4.0 | 10.0 | 0.00 | 0.00 | 0.00 | 54 | 1024.0 |
| 20260831011111 | 76 | 36 | 4.0 | 10.0 | 0.00 | 0.00 | 0.00 | 54 | 1024.1 |
| 20260831010612 | 77 | 17 | 3.0 | 10.0 | 0.00 | 0.00 | 0.00 | 53 | 1024.3 |
| 20260831010108 | 76 | 32 | 3.0 | 9.0 | 0.00 | 0.00 | 0.00 | 53 | 1024.3 |
| 20260831005606 | 76 | 13 | 4.0 | 15.0 | 0.00 | 0.00 | 0.00 | 53 | 1024.3 |
| 20260831005105 | 76 | 51 | 5.0 | 15.0 | 0.00 | 0.00 | 0.00 | 53 | 1024.4 |
| 20260831004605 | 76 | 294 | 5.0 | 12.0 | 0.00 | 0.00 | 0.00 | 52 | 1024.4 |
| 20260831004104 | 76 | 57 | 4.0 | 10.0 | 0.00 | 0.00 | 0.00 | 53 | 1024.6 |
| 20260831003606 | 76 | 60 | 5.0 | 15.0 | 0.00 | 0.00 | 0.00 | 53 | 1024.3 |
| 20260831003103 | 76 | 50 | 5.0 | 15.0 | 0.00 | 0.00 | 0.00 | 53 | 1024.4 |
| 20260831002602 | 77 | 14 | 5.0 | 12.0 | 0.00 | 0.00 | 0.00 | 51 | 1024.5 |
| 20260831002104 | 77 | 338 | 4.0 | 11.0 | 0.00 | 0.00 | 0.00 | 51 | 1024.5 |
| 20260831001603 | 77 | 159 | 4.0 | 13.0 | 0.00 | 0.00 | 0.00 | 51 | 1024.6 |
| 20260831001104 | 77 | 53 | 4.0 | 13.0 | 0.00 | 0.00 | 0.00 | 52 | 1024.6 |
| 20260831000603 | 77 | 15 | 4.0 | 12.0 | 0.00 | 0.00 | 0.00 | 51 | 1024.8 |
| 20260831000104 | 77 | 9 | 4.0 | 12.0 | 0.00 | 0.00 | 0.00 | 51 | 1024.9 |
| 20260830235559 | 77 | 42 | 3.0 | 9.0 | 0.00 | 0.00 | 0.00 | 51 | 1025.0 |
| 20260830235058 | 77 | 51 | 3.0 | 12.0 | 0.00 | 0.00 | 0.00 | 52 | 1024.9 |
| 20260830234556 | 77 | 58 | 5.0 | 12.0 | 0.00 | 0.00 | 0.00 | 51 | 1025.0 |
| 20260830234056 | 77 | 5 | 5.0 | 11.0 | 0.00 | 0.00 | 0.00 | 50 | 1025.1 |
| 20260830233557 | 77 | 26 | 4.0 | 11.0 | 0.00 | 0.00 | 0.00 | 51 | 1025.3 |
| 20260830233057 | 77 | 0 | 4.0 | 11.0 | 0.00 | 0.00 | 0.00 | 50 | 1025.2 |
| 20260830232555 | 77 | 347 | 3.0 | 9.0 | 0.00 | 0.00 | 0.00 | 51 | 1025.5 |
| 20260830232055 | 77 | 355 | 4.0 | 10.0 | 0.00 | 0.00 | 0.00 | 50 | 1025.2 |
| 20260830231554 | 77 | 28 | 4.0 | 11.0 | 0.00 | 0.00 | 0.00 | 50 | 1025.3 |
| 20260830231054 | 77 | 36 | 4.0 | 11.0 | 0.00 | 0.00 | 0.00 | 50 | 1025.4 |
| 20260830230555 | 77 | 326 | 5.0 | 12.0 | 0.00 | 0.00 | 0.00 | 51 | 1025.4 |
| 20260830230055 | 77 | 33 | 5.0 | 12.0 | 0.00 | 0.00 | 0.00 | 50 | 1025.5 |
| 20260830225555 | 77 | 280 | 5.0 | 11.0 | 0.00 | 0.00 | 0.00 | 50 | 1025.5 |
| 20260830225052 | 77 | 324 | 4.0 | 11.0 | 0.00 | 0.00 | 0.00 | 50 | 1025.6 |
| 20260830224546 | 76 | 63 | 3.0 | 11.0 | 0.00 | 0.00 | 0.00 | 50 | 1025.8 |
| 20260830224040 | 76 | 44 | 4.0 | 10.0 | 0.00 | 0.00 | 0.00 | 51 | 1025.9 |
| 20260830223534 | 76 | 5 | 4.0 | 10.0 | 0.00 | 0.00 | 0.00 | 50 | 1026.0 |
| 20260830223028 | 76 | 299 | 4.0 | 12.0 | 0.00 | 0.00 | 0.00 | 51 | 1026.0 |